(291741) = 2006 JC55

Discovered at Mount Lemmon on 2006-05-09 by Mt. Lemmon Survey.

Orbit

Orbit type: Main Belt

Note: WebGL enabled browser required.

epoch2023-09-13.0
epoch JD2460200.5
perihelion date2020-07-07.12040
perihelion JD2459037.62040
argument of perihelion (°)48.69070
ascending node (°)215.83265
inclination (°)2.17171
eccentricity0.1769192
perihelion distance (AU)1.8929098
Tisserand w.r.t. Jupiter3.6
ΔV w.r.t. Earth (km/sec)8.6
semimajor axis (AU)2.2997863
mean anomaly (°)328.63013
mean daily motion (°/day)0.28260030
aphelion distance (AU)2.707
period (years)3.49
P-vector [x]-0.09575604
P-vector [y]-0.92421518
P-vector [z]-0.36967157
Q-vector [x]0.99515760
Q-vector [y]-0.09716239
Q-vector [z]-0.01486022
absolute magnitude18.11
phase slope0.15
uncertainty0
referenceMPEC 2024-B91
observations used240
oppositions11
arc length (days)7129
first opposition used2003
last opposition used2023
residual rms (arc-secs)0.73
perturbers coarse indicatorM-v
perturbers precise indicator003Ek
first observation date used2003-09-19.0
last observation date used2023-03-27.0
computer nameMPCLINUX
JD of orbit computation2456465.518678
perihelion JD uncertainty (days)7.0302E-05
argument of perihelion uncertainty (°)7.4153E-05
ascending node uncertainty (°)6.8774E-05
inclination uncertainty (°)3.4754E-06
eccentricity uncertainty 4.5055E-08
perihelion distance uncertainty (AU)1.0253E-07
Minimum Orbit Intersection Distances (in AU)
for orbit epoch: 2460200.5, reference: E2024-B91
Mercury1.42952
Venus1.16706
Earth0.87734
Mars0.39188
Jupiter2.36057
Saturn6.34664
Uranus16.0221
Neptune27.2363

Observations

248 total observations over interval: 2003 09 19.29932 – 2023 03 27.274178
These data are available for download (format description).

Date (UT) J2000 RA J2000 Dec Magn Location Ref
2003 09 19.29932 23 03 02.91 -03 00 56.2 21.0 V 691 – Steward Observatory, Kitt Peak-Spacewatch MPS 286928
2003 09 19.32804 23 03 01.39 -03 01 07.3 20.9 V 691 – Steward Observatory, Kitt Peak-Spacewatch MPS 286928
2003 09 19.35519 23 02 59.97 -03 01 18.6 20.9 V 691 – Steward Observatory, Kitt Peak-Spacewatch MPS 286928
2006 04 20.38635 15 56 28.24 -19 41 57.2 20.0 V G96 – Mt. Lemmon Survey MPS 172917
2006 04 20.39398 15 56 28.06 -19 41 56.1 20.2 V G96 – Mt. Lemmon Survey MPS 172917
2006 04 20.40168 15 56 27.92 -19 41 54.4 20.2 V G96 – Mt. Lemmon Survey MPS 172917
2006 04 20.40963 15 56 27.70 -19 41 53.0 20.1 V G96 – Mt. Lemmon Survey MPS 172917
2006 05 09.29907 15 44 45.34 -18 27 44.2 19.5 V G96 – Mt. Lemmon Survey MPS 172143
2006 05 09.30507 15 44 45.02 -18 27 42.3 19.2 V G96 – Mt. Lemmon Survey MPS 172143
2006 05 09.31098 15 44 44.70 -18 27 40.7 19.6 V G96 – Mt. Lemmon Survey MPS 172143
2006 05 09.31668 15 44 44.41 -18 27 39.2 19.5 V G96 – Mt. Lemmon Survey MPS 172143
2006 05 19.27672 15 35 51.39 -17 38 37.0 19.2 V G96 – Mt. Lemmon Survey MPS 172143
2006 05 19.28498 15 35 50.89 -17 38 34.6 19.0 V G96 – Mt. Lemmon Survey MPS 172143
2006 05 19.29326 15 35 50.42 -17 38 32.2 19.1 V G96 – Mt. Lemmon Survey MPS 172143
2006 05 19.30147 15 35 49.92 -17 38 29.5 19.2 V G96 – Mt. Lemmon Survey MPS 172143
2006 05 24.34723 15 31 15.64 -17 13 31.1 19.8 V 691 – Steward Observatory, Kitt Peak-Spacewatch MPS 172143
2006 05 24.36453 15 31 14.65 -17 13 26.2 19.8 V 691 – Steward Observatory, Kitt Peak-Spacewatch MPS 172143
2006 05 24.38181 15 31 13.67 -17 13 20.9 19.7 V 691 – Steward Observatory, Kitt Peak-Spacewatch MPS 172143
2006 05 25.28829 15 30 25.92 -17 08 58.7 19.3 V G96 – Mt. Lemmon Survey MPS 172143
2006 05 25.29335 15 30 25.63 -17 08 57.4 19.4 V G96 – Mt. Lemmon Survey MPS 172143
2006 05 25.30343 15 30 25.09 -17 08 54.6 19.4 V G96 – Mt. Lemmon Survey MPS 172143
2006 05 28.33734 15 27 48.71 -16 54 36.1 20.1 V 691 – Steward Observatory, Kitt Peak-Spacewatch MPS 172917
2006 05 28.33978 15 27 48.58 -16 54 35.3 19.9 V 691 – Steward Observatory, Kitt Peak-Spacewatch MPS 172917
2006 05 28.35467 15 27 47.79 -16 54 31.2 20.2 V 691 – Steward Observatory, Kitt Peak-Spacewatch MPS 172917
2006 05 28.35709 15 27 47.66 -16 54 30.4 20.0 V 691 – Steward Observatory, Kitt Peak-Spacewatch MPS 172917
2006 05 28.37197 15 27 46.87 -16 54 26.3 20.2 V 691 – Steward Observatory, Kitt Peak-Spacewatch MPS 172917
2006 05 28.37440 15 27 46.73 -16 54 25.1 20.1 V 691 – Steward Observatory, Kitt Peak-Spacewatch MPS 172917
2006 06 01.30466 15 24 38.62 -16 37 02.6 19.9 V 691 – Steward Observatory, Kitt Peak-Spacewatch MPS 172917
2006 06 01.32203 15 24 37.77 -16 36 58.3 19.7 V 691 – Steward Observatory, Kitt Peak-Spacewatch MPS 172917
2006 06 01.33941 15 24 36.93 -16 36 53.9 19.8 V 691 – Steward Observatory, Kitt Peak-Spacewatch MPS 172917
2007 11 03.24350 03 29 47.08 +18 09 21.5 20.8 V 691 – Steward Observatory, Kitt Peak-Spacewatch MPS 254532
2007 11 03.26113 03 29 45.97 +18 09 17.2 21.5 V 691 – Steward Observatory, Kitt Peak-Spacewatch MPS 254532
2007 11 03.27886 03 29 44.83 +18 09 13.0 21.5 V 691 – Steward Observatory, Kitt Peak-Spacewatch MPS 254532
2007 11 14.22043 03 18 12.96 +17 17 35.9 20.7 V G96 – Mt. Lemmon Survey MPS 254532
2007 11 14.22726 03 18 12.60 +17 17 34.1 20.8 V G96 – Mt. Lemmon Survey MPS 254532
2007 11 14.23404 03 18 12.13 +17 17 32.6 20.7 V G96 – Mt. Lemmon Survey MPS 254533
2007 11 14.24082 03 18 11.66 +17 17 30.3 20.8 V G96 – Mt. Lemmon Survey MPS 254533
2009 02 20.31661 10 04 49.94 +08 13 50.0 20.2 V G96 – Mt. Lemmon Survey MPS 277601
2009 02 20.32517 10 04 49.44 +08 13 52.8 20.8 V G96 – Mt. Lemmon Survey MPS 277601
2009 02 20.33383 10 04 48.86 +08 13 56.2 20.8 V G96 – Mt. Lemmon Survey MPS 277601
2009 02 20.34236 10 04 48.28 +08 13 59.3 20.4 V G96 – Mt. Lemmon Survey MPS 277601
2010 09 04.34858 23 34 22.04 +00 25 27.8 20.9 V G96 – Mt. Lemmon Survey MPS 347117
2010 09 04.35500 23 34 21.72 +00 25 25.5 20.8 V G96 – Mt. Lemmon Survey MPS 347117
2010 09 04.36142 23 34 21.36 +00 25 23.0 20.9 V G96 – Mt. Lemmon Survey MPS 347117
2010 09 04.36787 23 34 20.96 +00 25 20.3 20.7 V G96 – Mt. Lemmon Survey MPS 347117
2010 09 06.508027 23 32 23.628 +00 11 05.82 20.79 z F51 – Pan-STARRS 1, Haleakala MPS 365596
2010 09 06.510968 23 32 23.470 +00 11 04.70 20.93 z F51 – Pan-STARRS 1, Haleakala MPS 365596
2010 09 06.513892 23 32 23.289 +00 11 03.46 20.79 z F51 – Pan-STARRS 1, Haleakala MPS 365596
2010 09 06.516907 23 32 23.116 +00 11 02.24 20.90 z F51 – Pan-STARRS 1, Haleakala MPS 365596
2010 09 06.522761 23 32 22.775 +00 11 00.02 20.85 z F51 – Pan-STARRS 1, Haleakala MPS 365596
2010 09 06.525767 23 32 22.589 +00 10 58.71 20.93 z F51 – Pan-STARRS 1, Haleakala MPS 365596
2010 09 06.528708 23 32 22.420 +00 10 57.52 20.72 z F51 – Pan-STARRS 1, Haleakala MPS 365596
2010 09 07.561124 23 31 25.025 +00 03 55.91 20.66 r F51 – Pan-STARRS 1, Haleakala MPS 365596
2010 09 07.562658 23 31 24.939 +00 03 55.19 20.69 r F51 – Pan-STARRS 1, Haleakala MPS 365596
2010 09 07.564109 23 31 24.852 +00 03 54.72 20.58 r F51 – Pan-STARRS 1, Haleakala MPS 365596
2010 09 07.566998 23 31 24.686 +00 03 53.48 20.62 r F51 – Pan-STARRS 1, Haleakala MPS 365596
2010 09 07.568538 23 31 24.601 +00 03 52.80 20.64 r F51 – Pan-STARRS 1, Haleakala MPS 365596
2010 09 07.571427 23 31 24.422 +00 03 51.69 20.59 r F51 – Pan-STARRS 1, Haleakala MPS 365596
2010 09 09.451357 23 29 39.518 -00 09 08.85 20.59 z F51 – Pan-STARRS 1, Haleakala MPS 365596
2010 09 09.454299 23 29 39.351 -00 09 10.00 20.57 z F51 – Pan-STARRS 1, Haleakala MPS 365596
2010 09 09.476919 23 29 38.010 -00 09 19.54 20.72 z F51 – Pan-STARRS 1, Haleakala MPS 365596
2010 09 10.522346 23 28 39.070 -00 16 38.72 20.66 r F51 – Pan-STARRS 1, Haleakala MPS 365596
2010 09 10.523794 23 28 38.984 -00 16 39.37 20.58 r F51 – Pan-STARRS 1, Haleakala MPS 365596
2010 09 10.525237 23 28 38.891 -00 16 39.80 20.47 r F51 – Pan-STARRS 1, Haleakala MPS 365596
2010 09 10.526687 23 28 38.812 -00 16 40.64 20.56 r F51 – Pan-STARRS 1, Haleakala MPS 365596
2010 09 10.528228 23 28 38.710 -00 16 41.07 20.53 r F51 – Pan-STARRS 1, Haleakala MPS 365596
2010 09 10.529683 23 28 38.643 -00 16 41.78 20.60 r F51 – Pan-STARRS 1, Haleakala MPS 365596
2010 09 12.500195 23 26 47.767 -00 30 37.97 20.51 z F51 – Pan-STARRS 1, Haleakala MPS 365596
2010 09 12.503110 23 26 47.568 -00 30 39.32 20.50 z F51 – Pan-STARRS 1, Haleakala MPS 365596
2010 09 12.506033 23 26 47.402 -00 30 40.38 20.48 z F51 – Pan-STARRS 1, Haleakala MPS 365596
2010 09 12.509043 23 26 47.238 -00 30 41.70 20.43 z F51 – Pan-STARRS 1, Haleakala MPS 365596
2010 09 12.511976 23 26 47.049 -00 30 42.89 20.46 z F51 – Pan-STARRS 1, Haleakala MPS 365596
2010 09 12.514910 23 26 46.897 -00 30 44.03 20.53 z F51 – Pan-STARRS 1, Haleakala MPS 365596
2010 09 12.517837 23 26 46.727 -00 30 45.36 20.45 z F51 – Pan-STARRS 1, Haleakala MPS 365596
2010 09 12.520846 23 26 46.520 -00 30 47.71 20.43 z F51 – Pan-STARRS 1, Haleakala MPS 365596
2010 09 13.93031 23 25 27.76 -00 40 51.4 20.0 V J75 – OAM Observatory, La Sagra MPS 347995
2010 09 13.94227 23 25 27.06 -00 40 55.2 19.9 V J75 – OAM Observatory, La Sagra MPS 347995
2010 09 13.95421 23 25 26.26 -00 40 59.5 19.9 V J75 – OAM Observatory, La Sagra MPS 347995
2010 10 11.27963 23 05 15.50 -03 30 45.2 20.9 V G96 – Mt. Lemmon Survey MPS 351256
2010 10 11.28715 23 05 15.32 -03 30 47.4 21.0 V G96 – Mt. Lemmon Survey MPS 351256
2010 10 11.29461 23 05 15.10 -03 30 49.4 21.4 V G96 – Mt. Lemmon Survey MPS 351256
2010 10 11.30210 23 05 14.82 -03 30 51.8 22.0 V G96 – Mt. Lemmon Survey MPS 351256
2013 04 04.57906 16 19 11.212 -20 58 24.23 20.4 i F51 – Pan-STARRS 1, Haleakala MPS 462577
2013 04 04.59038 16 19 11.477 -20 58 23.82 20.5 i F51 – Pan-STARRS 1, Haleakala MPS 462577
2013 04 22.44678 16 21 28.72 -20 30 59.0 20.0 V G96 – Mt. Lemmon Survey MPS 465459
2013 04 22.45222 16 21 28.69 -20 30 58.3 19.8 V G96 – Mt. Lemmon Survey MPS 465459
2013 04 22.45775 16 21 28.58 -20 30 57.3 20.0 V G96 – Mt. Lemmon Survey MPS 465459
2013 04 22.46329 16 21 28.47 -20 30 56.4 20.2 V G96 – Mt. Lemmon Survey MPS 465459
2013 05 05.14265 16 16 11.92 -19 51 22.6 18.2 K W91 – VHS-VISTA, Cerro Paranal MPS 678489
